| time (UTC) | temp F | wind direction | speed MPH | gust MPH | rain 1hr in | rain 24hr in | rain mn in | humidity % | barometer mb |
| 20260507134104 | 55 | 293 | 3.0 | 6.0 | 0.00 | 0.29 | 0.21 | 87 | 1010.5 |
| 20260507133104 | 55 | 269 | 1.0 | 2.0 | 0.00 | 0.29 | 0.21 | 94 | 1010.5 |
| 20260507132104 | 55 | 256 | 1.0 | 2.0 | 0.00 | 0.29 | 0.21 | 90 | 1010.5 |
| 20260507131104 | 54 | 308 | 2.0 | 3.0 | 0.00 | 0.29 | 0.21 | 92 | 1010.5 |
| 20260507130103 | 54 | 295 | 2.0 | 3.0 | 0.00 | 0.29 | 0.21 | 91 | 1010.5 |
| 20260507124104 | 52 | 305 | 1.0 | 2.0 | 0.00 | 0.29 | 0.21 | 97 | 1009.8 |
| 20260507123104 | 51 | 270 | 5.0 | 3.0 | 0.00 | 0.29 | 0.21 | 97 | 1009.8 |
| 20260507121103 | 50 | 263 | 2.0 | 2.0 | 0.00 | 0.29 | 0.21 | 97 | 1009.8 |
| 20260507120106 | 50 | 292 | 2.0 | 2.0 | 0.00 | 0.29 | 0.21 | 97 | 1009.4 |
| 20260507115104 | 49 | 270 | 0.0 | 1.0 | 0.01 | 0.29 | 0.21 | 97 | 1009.4 |
| 20260507113103 | 49 | 292 | 0.0 | 1.0 | 0.01 | 0.29 | 0.21 | 97 | 1009.4 |
| 20260507111105 | 49 | 292 | 0.0 | 0.0 | 0.02 | 0.29 | 0.21 | 97 | 1009.1 |
| 20260507110105 | 49 | 292 | 0.0 | 0.0 | 0.03 | 0.29 | 0.21 | 97 | 1009.1 |
| 20260507105105 | 48 | 292 | 0.0 | 0.0 | 0.02 | 0.28 | 0.19 | 97 | 1009.1 |
| 20260507104105 | 48 | 292 | 0.0 | 0.0 | 0.03 | 0.28 | 0.19 | 97 | 1009.1 |
| 20260507103103 | 48 | 292 | 0.0 | 0.0 | 0.03 | 0.28 | 0.19 | 97 | 1009.1 |
| 20260507100105 | 48 | 292 | 0.0 | 6.0 | 0.03 | 0.26 | 0.17 | 97 | 1009.1 |
| 20260507095104 | 48 | 247 | 1.0 | 2.0 | 0.04 | 0.26 | 0.17 | 97 | 1009.1 |
| 20260507094104 | 48 | 270 | 1.0 | 2.0 | 0.04 | 0.25 | 0.16 | 97 | 1008.8 |
| 20260507093106 | 48 | 270 | 1.0 | 3.0 | 0.06 | 0.25 | 0.16 | 97 | 1008.8 |
| 20260507092104 | 49 | 292 | 1.0 | 2.0 | 0.08 | 0.24 | 0.15 | 97 | 1008.8 |
| 20260507091104 | 49 | 248 | 1.0 | 2.0 | 0.08 | 0.23 | 0.14 | 97 | 1008.8 |
| 20260507090105 | 49 | 253 | 1.0 | 6.0 | 0.09 | 0.23 | 0.14 | 97 | 1008.4 |
| 20260507084105 | 49 | 277 | 1.0 | 3.0 | 0.08 | 0.21 | 0.12 | 97 | 1009.1 |
| 20260507083106 | 49 | 270 | 1.0 | 2.0 | 0.08 | 0.18 | 0.10 | 97 | 1009.1 |
| 20260507082105 | 49 | 270 | 0.0 | 0.0 | 0.06 | 0.16 | 0.08 | 97 | 1008.8 |
| 20260507081104 | 50 | 270 | 0.0 | 0.0 | 0.05 | 0.15 | 0.06 | 97 | 1008.8 |
| 20260507075106 | 50 | 255 | 0.0 | 2.0 | 0.03 | 0.13 | 0.04 | 95 | 1009.2 |
| 20260507074105 | 51 | 278 | 1.0 | 6.0 | 0.03 | 0.13 | 0.04 | 93 | 1008.8 |
| 20260507073105 | 53 | 262 | 3.0 | 7.0 | 0.01 | 0.11 | 0.02 | 92 | 1009.1 |
| 20260507072104 | 54 | 271 | 2.0 | 6.0 | 0.00 | 0.10 | 0.01 | 90 | 1008.4 |
| 20260507071104 | 54 | 301 | 2.0 | 6.0 | 0.00 | 0.10 | 0.01 | 91 | 1008.1 |
| 20260507070104 | 54 | 270 | 2.0 | 6.0 | 0.00 | 0.10 | 0.01 | 91 | 1008.4 |
| 20260507065104 | 55 | 315 | 0.0 | 3.0 | 0.00 | 0.10 | 0.01 | 91 | 1008.4 |
| 20260507064105 | 55 | 202 | 1.0 | 3.0 | 0.00 | 0.10 | 0.01 | 91 | 1008.4 |
| 20260507063105 | 55 | 268 | 3.0 | 7.0 | 0.00 | 0.10 | 0.01 | 93 | 1008.8 |
| 20260507062104 | 56 | 284 | 0.0 | 2.0 | 0.00 | 0.10 | 0.01 | 97 | 1008.8 |
| 20260507061104 | 56 | 285 | 0.0 | 2.0 | 0.00 | 0.10 | 0.01 | 97 | 1008.8 |
| 20260507060105 | 56 | 225 | 0.0 | 1.0 | 0.00 | 0.10 | 0.01 | 97 | 1008.8 |
| 20260507054104 | 57 | 250 | 1.0 | 7.0 | 0.00 | 0.10 | 0.01 | 97 | 1009.1 |
| 20260507053106 | 57 | 299 | 3.0 | 6.0 | 0.00 | 0.10 | 0.01 | 97 | 1009.1 |
| 20260507052104 | 57 | 270 | 1.0 | 2.0 | 0.00 | 0.10 | 0.01 | 97 | 1009.1 |
| 20260507051104 | 57 | 280 | 2.0 | 2.0 | 0.00 | 0.10 | 0.01 | 97 | 1009.1 |
| 20260507050104 | 58 | 286 | 3.0 | 8.0 | 0.01 | 0.10 | 0.01 | 97 | 1009.1 |
| 20260507045104 | 58 | 294 | 2.0 | 3.0 | 0.01 | 0.10 | 0.01 | 98 | 1009.1 |
| 20260507044105 | 59 | 287 | 3.0 | 8.0 | 0.01 | 0.10 | 0.01 | 98 | 1009.1 |
| 20260507043105 | 59 | 236 | 1.0 | 2.0 | 0.01 | 0.10 | 0.01 | 98 | 1008.8 |
| 20260507042105 | 59 | 225 | 1.0 | 2.0 | 0.01 | 0.10 | 0.01 | 98 | 1008.8 |
| 20260507041105 | 59 | 270 | 0.0 | 2.0 | 0.01 | 0.10 | 0.01 | 98 | 1009.1 |
| 20260507040105 | 59 | 270 | 1.0 | 2.0 | 0.00 | 0.09 | 0.00 | 98 | 1009.1 |
| 20260507035104 | 59 | 227 | 1.0 | 8.0 | 0.00 | 0.09 | 0.09 | 98 | 1009.1 |
| 20260507034105 | 59 | 249 | 3.0 | 8.0 | 0.00 | 0.09 | 0.09 | 98 | 1009.1 |
| 20260507033105 | 59 | 301 | 2.0 | 7.0 | 0.00 | 0.09 | 0.09 | 98 | 1009.1 |
| 20260507032104 | 59 | 239 | 2.0 | 6.0 | 0.00 | 0.09 | 0.09 | 98 | 1009.1 |
| 20260507031105 | 59 | 306 | 1.0 | 8.0 | 0.00 | 0.09 | 0.09 | 98 | 1008.8 |
| 20260507030104 | 59 | 264 | 3.0 | 8.0 | 0.00 | 0.09 | 0.09 | 98 | 1008.8 |
| 20260507025104 | 59 | 188 | 2.0 | 8.0 | 0.00 | 0.09 | 0.09 | 98 | 1008.8 |
| 20260507024106 | 59 | 270 | 2.0 | 6.0 | 0.00 | 0.09 | 0.09 | 98 | 1008.4 |
| 20260507022105 | 59 | 208 | 2.0 | 7.0 | 0.00 | 0.09 | 0.09 | 98 | 1008.8 |
| 20260507021105 | 59 | 210 | 2.0 | 9.0 | 0.00 | 0.09 | 0.09 | 98 | 1008.8 |
| 20260507020105 | 58 | 195 | 2.0 | 6.0 | 0.00 | 0.09 | 0.09 | 98 | 1008.8 |
| 20260507015104 | 58 | 166 | 5.0 | 8.0 | 0.00 | 0.09 | 0.09 | 98 | 1008.4 |
| 20260507014104 | 58 | 203 | 2.0 | 2.0 | 0.00 | 0.09 | 0.09 | 98 | 1008.4 |
| 20260507013105 | 58 | 200 | 2.0 | 8.0 | 0.00 | 0.09 | 0.09 | 98 | 1008.8 |
| 20260507012104 | 58 | 151 | 1.0 | 6.0 | 0.00 | 0.09 | 0.09 | 97 | 1008.8 |
| 20260507010105 | 58 | 186 | 1.0 | 6.0 | 0.00 | 0.09 | 0.09 | 97 | 1009.1 |
| 20260507005105 | 58 | 247 | 3.0 | 3.0 | 0.00 | 0.09 | 0.09 | 97 | 1009.1 |
| 20260507004106 | 58 | 232 | 2.0 | 9.0 | 0.01 | 0.09 | 0.09 | 97 | 1009.1 |
| 20260506235104 | 58 | 117 | 2.0 | 6.0 | 0.03 | 0.09 | 0.09 | 97 | 1008.8 |
| 20260506234105 | 58 | 164 | 2.0 | 6.0 | 0.02 | 0.08 | 0.08 | 97 | 1008.8 |
| 20260506233104 | 58 | 156 | 2.0 | 6.0 | 0.01 | 0.06 | 0.06 | 98 | 1008.4 |
| 20260506232104 | 58 | 197 | 5.0 | 8.0 | 0.01 | 0.06 | 0.06 | 98 | 1008.8 |
| 20260506230105 | 59 | 189 | 4.0 | 9.0 | 0.00 | 0.05 | 0.05 | 98 | 1008.8 |
| 20260506225104 | 59 | 164 | 5.0 | 7.0 | 0.00 | 0.05 | 0.05 | 98 | 1008.8 |
| 20260506223106 | 59 | 141 | 2.0 | 2.0 | 0.01 | 0.05 | 0.05 | 98 | 1008.8 |
| 20260506222103 | 59 | 174 | 3.0 | 8.0 | 0.01 | 0.05 | 0.05 | 98 | 1009.1 |
| 20260506221105 | 59 | 128 | 2.0 | 6.0 | 0.01 | 0.05 | 0.05 | 98 | 1009.1 |
| 20260506220105 | 59 | 160 | 5.0 | 8.0 | 0.01 | 0.05 | 0.05 | 98 | 1009.1 |
| 20260506215104 | 60 | 166 | 3.0 | 9.0 | 0.02 | 0.05 | 0.05 | 98 | 1009.1 |
| 20260506214103 | 60 | 154 | 1.0 | 12.0 | 0.03 | 0.05 | 0.05 | 98 | 1009.1 |
| 20260506213105 | 60 | 154 | 3.0 | 9.0 | 0.02 | 0.04 | 0.04 | 97 | 1009.4 |
| 20260506212104 | 60 | 153 | 5.0 | 8.0 | 0.02 | 0.04 | 0.04 | 97 | 1009.8 |
| 20260506205105 | 60 | 180 | 4.0 | 8.0 | 0.02 | 0.03 | 0.03 | 95 | 1009.8 |
| 20260506204106 | 61 | 123 | 5.0 | 10.0 | 0.01 | 0.02 | 0.02 | 93 | 1010.1 |
| 20260506202105 | 61 | 196 | 5.0 | 16.0 | 0.02 | 0.02 | 0.02 | 91 | 1010.5 |
| 20260506201104 | 61 | 236 | 3.0 | 7.0 | 0.01 | 0.01 | 0.01 | 91 | 1010.5 |
| 20260506200105 | 61 | 180 | 2.0 | 9.0 | 0.01 | 0.01 | 0.01 | 90 | 1010.5 |
| 20260506195104 | 62 | 214 | 5.0 | 9.0 | 0.01 | 0.01 | 0.01 | 87 | 1010.1 |
| 20260506194103 | 62 | 192 | 3.0 | 12.0 | 0.01 | 0.01 | 0.01 | 85 | 1010.5 |
| 20260506193105 | 63 | 167 | 2.0 | 6.0 | 0.01 | 0.01 | 0.01 | 83 | 1010.8 |
| 20260506191105 | 64 | 189 | 2.0 | 6.0 | 0.00 | 0.00 | 0.00 | 77 | 1011.1 |
| 20260506190103 | 66 | 176 | 7.0 | 14.0 | 0.00 | 0.00 | 0.00 | 71 | 1011.1 |
| 20260506183105 | 68 | 198 | 6.0 | 12.0 | 0.00 | 0.00 | 0.00 | 62 | 1011.1 |
| 20260506182105 | 69 | 169 | 7.0 | 14.0 | 0.00 | 0.00 | 0.00 | 61 | 1011.5 |
| 20260506181105 | 69 | 176 | 4.0 | 9.0 | 0.00 | 0.00 | 0.00 | 61 | 1011.5 |
| 20260506180105 | 69 | 175 | 3.0 | 8.0 | 0.00 | 0.00 | 0.00 | 60 | 1011.8 |
| 20260506175105 | 70 | 150 | 3.0 | 14.0 | 0.00 | 0.00 | 0.00 | 58 | 1011.8 |
| 20260506174105 | 71 | 144 | 5.0 | 16.0 | 0.00 | 0.00 | 0.00 | 56 | 1012.2 |
| 20260506173105 | 71 | 188 | 8.0 | 22.0 | 0.00 | 0.00 | 0.00 | 54 | 1012.2 |
| 20260506172104 | 72 | 174 | 12.0 | 15.0 | 0.00 | 0.00 | 0.00 | 54 | 1012.2 |
| 20260506171105 | 72 | 354 | 6.0 | 9.0 | 0.00 | 0.00 | 0.00 | 55 | 1011.8 |
| 20260506170104 | 72 | 182 | 6.0 | 9.0 | 0.00 | 0.00 | 0.00 | 55 | 1012.2 |
| 20260506165104 | 72 | 38 | 3.0 | 8.0 | 0.00 | 0.00 | 0.00 | 57 | 1012.2 |
| 20260506164104 | 72 | 184 | 3.0 | 9.0 | 0.00 | 0.00 | 0.00 | 57 | 1012.5 |
| 20260506162105 | 72 | 193 | 2.0 | 8.0 | 0.00 | 0.00 | 0.00 | 55 | 1012.8 |
| 20260506161104 | 72 | 150 | 5.0 | 12.0 | 0.00 | 0.00 | 0.00 | 54 | 1012.8 |
| 20260506160104 | 72 | 198 | 3.0 | 12.0 | 0.00 | 0.00 | 0.00 | 54 | 1012.8 |
| 20260506155105 | 72 | 180 | 7.0 | 8.0 | 0.00 | 0.00 | 0.00 | 56 | 1013.2 |
| 20260506154104 | 72 | 211 | 7.0 | 8.0 | 0.00 | 0.00 | 0.00 | 57 | 1013.2 |
| 20260506153106 | 72 | 211 | 3.0 | 7.0 | 0.00 | 0.00 | 0.00 | 58 | 1013.2 |
| 20260506152105 | 72 | 146 | 3.0 | 6.0 | 0.00 | 0.00 | 0.00 | 58 | 1013.2 |
| 20260506150104 | 71 | 138 | 6.0 | 12.0 | 0.00 | 0.00 | 0.00 | 58 | 1013.5 |
| 20260506145105 | 71 | 188 | 5.0 | 15.0 | 0.00 | 0.00 | 0.00 | 57 | 1013.5 |
| 20260506144104 | 70 | 193 | 6.0 | 12.0 | 0.00 | 0.00 | 0.00 | 59 | 1013.2 |
| 20260506142104 | 70 | 105 | 5.0 | 8.0 | 0.00 | 0.00 | 0.00 | 61 | 1013.2 |
| 20260506140106 | 69 | 160 | 5.0 | 6.0 | 0.00 | 0.00 | 0.00 | 65 | 1012.8 |
| 20260506135105 | 67 | 189 | 3.0 | 7.0 | 0.00 | 0.00 | 0.00 | 68 | 1012.8 |